This demonstration page uses our WeatherBlox Daily Observations layout. Learn more.

Left ArrowRight Arrow

30.21309, -93.2044

Hourly Observations for January 23, 2022

Temp ( °F °C ) Dew Point ( °F °C ) Humidity (%) Winds ( mph kmh ) Pressure ( in mb ) Visibility ( mi km ) Precip ( " mm )
12:15 am 00:15 Clear 33 0.3 19 -7 58 58 NNE 5 7 30.35 1028 10 16 0.00 0.00
12:35 am 00:35 Clear 32 -0.1 19 -7.1 60 60 N 3 6 30.35 1028 10 16 0.00 0.00
12:55 am 00:55 Clear 31 -0.4 20 -6.6 63 63 Calm 30.35 1028 10 16 0.00 0.00
1:15 am 01:15 Clear 30 -0.9 20 -6.4 67 67 NNE 5 7 30.34 1027 10 16 0.00 0.00
1:35 am 01:35 Clear 30 -1.1 20 -6.5 67 67 NNE 7 11 30.34 1027 10 16 0.00 0.00
1:55 am 01:55 Clear 31 -0.7 22 -5.4 71 71 NNE 8 13 30.33 1027 10 16 0.00 0.00
2:15 am 02:15 Clear 31 -0.7 22 -5.5 70 70 NNE 6 9 30.33 1027 10 16 0.00 0.00
2:35 am 02:35 Clear 31 -0.7 21 -6.1 67 67 N 3 6 30.33 1027 10 16 0.00 0.00
2:55 am 02:55 Clear 30 -1 21 -6 69 69 Calm 30.33 1027 10 16 0.00 0.00
3:15 am 03:15 Clear 31 -0.6 20 -6.5 65 65 Calm 30.33 1027 10 16 0.00 0.00
3:35 am 03:35 Clear 31 -0.6 20 -6.5 65 65 Calm 30.32 1027 10 16 0.00 0.00
3:55 am 03:55 Clear 29 -1.8 20 -6.5 71 71 Calm 30.33 1027 10 16 0.00 0.00
4:15 am 04:15 Clear 29 -1.6 19 -7 67 67 Calm 30.32 1027 10 16 0.00 0.00
4:35 am 04:35 Clear 29 -1.6 22 -5.8 73 73 Calm 30.32 1027 10 16 0.00 0.00
4:55 am 04:55 Clear 29 -1.4 21 -6 71 71 Calm 30.33 1027 10 16 0.00 0.00
5:15 am 05:15 Clear 28 -2 21 -6.2 73 73 WNW 5 7 30.33 1027 10 16 0.00 0.00
5:35 am 05:35 Clear 28 -2 22 -5.6 77 77 NW 3 6 30.34 1027 10 16 0.00 0.00
6:00 am 06:00 Mostly Clear 28 -2 21 -6 74 74 Calm 30.34 1027 10 16 0.00 0.00
6:54 am 06:54 Mostly Clear 28 -2 21 -6 74 74 Calm 30.35 1028 10 16 0.00 0.00
7:51 am 07:51 Mostly Sunny 30 -1 25 -4 80 80 Calm 30.34 1027 10 16 0.00 0.00
8:45 am 08:45 Mostly Sunny 37 3 23 -5 56 56 Calm 30.33 1027 10 16 0.00 0.00
9:55 am 09:55 Mostly Sunny 43 6 25 -4 49 49 Calm 30.33 1027 10 16 0.00 0.00
10:50 am 10:50 Mostly Sunny 46 8 21 -6 37 37 Calm 30.31 1026 10 16 0.00 0.00
11:50 am 11:50 Mostly Sunny 52 11 25 -4 35 35 NNE 5 7 30.27 1025 10 16 0.00 0.00
12:48 pm 12:48 Mostly Sunny 54 12 23 -5 30 30 NW 5 7 30.21 1023 10 16 0.00 0.00
1:48 pm 13:48 Mostly Sunny 55 13 27 -3 33 33 WNW 5 7 30.17 1022 10 16 0.00 0.00
2:47 pm 14:47 Mostly Sunny 57 14 28 -2 33 33 Calm 30.16 1021 10 16 0.00 0.00
3:45 pm 15:45 Mostly Sunny 57 14 27 -3 31 31 W 6 9 30.14 1021 10 16 0.00 0.00
4:45 pm 16:45 Mostly Sunny 57 14 28 -2 33 33 SSW 7 11 30.13 1020 10 16 0.00 0.00
5:50 pm 17:50 Mostly Clear 50 10 30 -1 47 47 SSW 12 19 30.14 1021 10 16 0.00 0.00
6:45 pm 18:45 Mostly Clear 46 8 36 2 66 66 SW 9 15 30.14 1021 10 16 0.00 0.00
7:46 pm 19:46 Mostly Clear 46 8 36 2 66 66 SW 6 9 30.14 1021 10 16 0.00 0.00
8:48 pm 20:48 Mostly Clear 45 7 36 2 71 71 SW 6 9 30.13 1020 10 16 0.00 0.00
9:45 pm 21:45 Mostly Clear 37 3 34 1 87 87 Calm 30.14 1021 10 16 0.00 0.00
10:15 pm 22:15 Clear 38 3.6 35 1.5 86 86 Calm 30.12 1020 10 16 0.00 0.00
10:35 pm 22:35 Clear 38 3.2 35 1.4 88 88 Calm 30.13 1020 10 16 0.00 0.00
10:55 pm 22:55 Clear 38 3.2 34 1.2 87 87 Calm 30.13 1020 10 16 0.00 0.00
11:15 pm 23:15 Clear 39 3.7 35 1.5 86 86 SW 3 6 30.13 1020 10 16 0.00 0.00
11:35 pm 23:35 Clear 36 2.3 34 0.9 91 91 Calm 30.13 1020 10 16 0.00 0.00
11:55 pm 23:55 Clear 36 2.4 34 1.1 91 91 Calm 30.12 1020 10 16 0.00 0.00

Powered by AerisWeather